Regional Weather Roundup
Issued by NWS

Home | Current Version | Previous Version | Text Only | Print | Product List | Glossary On
Versions: 1 2 3 4 5 6 7 8 9 10 11 12 13 14 15 16 17 18 19 20 21 22 23 24 25 26 27 28 29 30 31 32 33 34 35 36 37 38 39 40 41
000
ASUS45 KBOU 271007
RWRCO

WEATHER ROUNDUP FOR COLORADO
NATIONAL WEATHER SERVICE DENVER/BOULDER CO
300 AM MST SAT DEC 27 2014

NOTE: "FAIR" INDICATES FEW OR NO CLOUDS BELOW 12000 FEET WITH NO
SIGNIFICANT WEATHER AND/OR OBSTRUCTIONS TO VISIBILITY.

COZ001>005-013-030-031-271100-
...NORTHWEST COLORADO...

CITY           SKY/WX    TMP DP  RH WIND       PRES   REMARKS
CRAIG          CLOUDY    -1  -5  82 NW5       30.16R WCI -11
HAYDEN         CLOUDY     9   5  85 W3        30.12R
MEEKER         CLOUDY     9   5  84 CALM      30.14R
MOUNT WERNER   NOT AVBL
STEAMBOAT SPGS CLOUDY     9   6  87 CALM      30.10R
WALDEN         PTCLDY    -9 -17  70 SE5       30.01R WCI -21
$$

COZ006>008-011-271100-
...WEST CENTRAL VALLEYS...

CITY           SKY/WX    TMP DP  RH WIND       PRES   REMARKS
GRAND JUNCTION CLEAR      8   2  76 CALM      30.19R
MONTROSE       MOCLDY    14  12  92 CALM      30.17R
EAGLE          CLOUDY     9   7  92 E5        30.14R WCI   0
RIFLE          PTCLDY    11   6  81 CALM      30.18R
DELTA          CLOUDY    22  15  71 W5        30.17R WCI  16
NUCLA          NOT AVBL
$$

COZ017>023-064>068-271100-
...SOUTHWEST COLORADO...

CITY           SKY/WX    TMP DP  RH WIND       PRES   REMARKS
DURANGO        CLOUDY    11   8  88 CALM      30.05R
CORTEZ         CLEAR      6   3  87 E7        30.11R WCI  -6
PAGOSA SPRINGS LGT SNOW  12  11  95 CALM      30.02R
TELLURIDE      FLURRIES N/A N/A N/A SE5       30.01R
WOLF CREEK PAS CLOUDY    -2  -6  84 MISG      29.85R
$$

COZ009-010-012-014-032>034-037-058>063-271100-
...CENTRAL COLORADO...

CITY           SKY/WX    TMP DP  RH WIND       PRES   REMARKS
ASPEN          CLOUDY     6  -1  73 S7        30.04R WCI  -6
BUENA VISTA    PTCLDY    -3  -7  82 W6        30.01S WCI -15
COPPER MTN     MOCLDY     0  -8  71 W10       29.83R WCI -17
BERTHOUD PASS  CLOUDY    -8 -15  71 MISG      29.78S
COTTONWOOD PAS PTCLDY     9   3  78 NW5       29.90S WCI   0
GUNNISON       CLOUDY     1   1 100 CALM      30.07R
KREMMLING      LGT SNOW   9   3  78 CALM      30.07R
LEADVILLE      PTCLDY    -9 -14  78 NE8       29.90R WCI -25
SALIDA         CLOUDY     8   3  80 SW7       30.11R WCI  -4
SUNLIGHT       LGT SNOW N/A N/A N/A CALM      29.93R
WILKERSON PASS PTCLDY   N/A N/A N/A NW9       29.85S
$$

COZ069>075-271100-
...SAN LUIS VALLEY/SANGRE DE CRISTO MOUNTAINS...

CITY           SKY/WX    TMP DP  RH WIND       PRES   REMARKS
ALAMOSA        FOG        0  -3  87 W5        30.01R VSB 1/4 WCI -10
LA VETA PASS   NOT AVBL
SAGUACHE       MOCLDY    -4  -8  84 NW17      30.01R WCI -26
$$

COZ035-036-038>040-271100-
...NORTHERN COLORADO FRONT RANGE...

CITY           SKY/WX    TMP DP  RH WIND       PRES   REMARKS
DENVER INTL AP PTCLDY     6   3  87 SW9       30.08S WCI  -8
DMNS CITY PARK   N/A      9   5  84 SW5       30.10S WCI   1
AURORA         CLEAR      5   2  89 SW6       30.08S WCI  -6
FRONT RANGE AP PTCLDY    10   5  79 SW7       30.08S WCI   0
ERIE MUNI ARPT   N/A     -1  -4  86 S5        30.11S WCI -11
BOULDER MUN AP PTCLDY     9   7  92 S3        30.09F
CENTENNIAL     PTCLDY     5   2  87 SW3       30.06S
BROOMFIELD     PTCLDY    12   5  73 W5        30.08S WCI   4
FORT COLLINS   PTCLDY     9   7  92 SW3       30.11S
LONGMONT       PTCLDY     3  -1  83 W6        30.13F WCI  -8
$$

COZ041-046-047-076>085-087-088-271100-
...PIKES PEAK/PALMER DIVIDE AND SOUTHERN FOOTHILLS...

CITY           SKY/WX    TMP DP  RH WIND       PRES   REMARKS
COLO. SPRINGS  MOCLDY    12   9  87 CALM      30.06R
A. F. ACADEMY  PTCLDY     1  -5  78 CALM      30.03R
ELLICOTT       NOT AVBL
FALCON         PTCLDY     7   3  86 NW3       30.02R
FORT CARSON    PTCLDY    10   8  89 SW6       30.06R WCI   1
LIMON          PTCLDY     1  -2  87 W10       30.07S WCI -15
MONUMENT HILL  MOCLDY     1   0  92 SW6       29.99R WCI -10
TRINIDAD       CLOUDY    14  10  84 NW5       30.08R WCI   6
$$

COZ042>045-048>051-090-091-271100-
...NORTHEAST COLORADO...

CITY           SKY/WX    TMP DP  RH WIND       PRES   REMARKS
GREELEY ARPT     N/A      3   0  85 NW5       30.11S VSB 3/4 WCI  -6
AKRON          CLEAR      4   3  96 W15       30.08F WCI -14
BURLINGTON     PTCLDY     2  -2  83 NW12      30.11F WCI -15
WRAY           CLEAR      3   0  87 CALM      30.15S
STERLING       CLEAR     14  10  85 W13       30.13S WCI   0
HOLYOKE        CLEAR     14  10  85 W9        30.13F WCI   2
FORT MORGAN    CLEAR      4   1  87 W9        30.12S WCI -10
$$

COZ086-089-092>099-271100-
...SOUTHEAST COLORADO...

CITY           SKY/WX    TMP DP  RH WIND       PRES   REMARKS
PUEBLO         PTCLDY    12  10  92 CALM      30.12F
LA JUNTA       CLEAR     10   6  84 W10       30.15S WCI  -4
LAMAR          CLEAR     11   7  84 W5        30.17R WCI   3
SPRINGFIELD      N/A      8   5  87 NW10      30.13S WCI  -6
$$


USA.gov is the U.S. government's official web portal to all federal, state and local government web resources and services.